User: anonymous   Login
Location: Unspecified
(0.0000°N, 0.0000°E)
Time: 04:23:26
(UTC+00:00)
Language:

KORONAS-FOTON - Orbit

View from above orbital plane
View from above orbital plane
View from above satellite
View from above satellite

Ground track
Ground track

The orbit data is extracted from the following two-line orbital elements,

1 33504U 09003A   14298.75704104  .00005603  00000-0  32962-3 0  1631
2 33504 082.4428 110.6747 0020328 198.4390 289.1933 15.11287094315439
Epoch (UTC): 25 October 2014 18:10:08
Eccentricity: 0.0020328
inclination: 82.4428°
perigee height: 518 km
apogee height: 546 km
right ascension of ascending node: 110.6747°
argument of perigee: 198.4390°
revolutions per day: 15.11287094
mean anomaly at epoch: 289.1933°
orbit number at epoch: 31543

The dashed part of the orbit path shows where the satellite is in the earth's shadow,  

DLR